Location: Borotín
(49.5055°N, 14.6142°E)
Time: 12:45:14
(UTC+00:00)

Cosmos 1269 Rocket - Pass Details

Date: 27 May 2022
Orbit: 773 x 778 km, 74.1° (Epoch: 26 June)

Event Time Altitude Azimuth Distance (km) Brightness Sun altitude
Rises 00:08:22 0° 336° (NNW) 3,262 8.1 -17.6°
Reaches altitude 10° 00:10:45 10° 338° (NNW) 2,330 7.2 -17.4°
Maximum altitude 00:16:04 81° 66° (ENE) 789 4.1 -17.2°
Enters shadow 00:20:15 17° 153° (SSE) 1,903 5.7 -16.9°
